Weather in Ptichye

Russia / Kurgan Oblast     55°07′13″N   63°24′19″E
temp.,
°C
wind,
m/s
gust,
m/s
humid.,
%
clouds,
%
prec.,
mm/h
press.,
hPa
HPBL,
m
17 may, tue
tue1723:00+10wsw59855 0.6 999252
02:00+8sw498920 0.0 999234
05:00+7sw5109528 0.0 1000255
08:00+11wsw6977100 0.0 1000516
11:00+15wsw796276 0.3 10011487
14:00+15wsw7954100 0.1 10021368
17:00+17wsw694465 0.1 10022244
20:00+14sw356359 0.0 100379
18 may, wed
wed1823:00+11ssw47695 0.0 1004100
02:00+10sw4978100 0.0 1005155
05:00+9ssw488198 0.0 1005157
08:00+12sw5769100 0.0 1005497
11:00+15sw4557100 0.0 10051258
14:00+18sw56365 0.0 10042305
17:00+18ssw673671 0.0 10012278
20:00+13wnw466686 0.1 1000152
19 may, thu
thu1923:00+8w4692100 4.2 1001249
02:00+8wsw3792100 1.5 1000410
05:00+8wsw61191100 2.1 1000399
08:00+10w7977100 0.1 1002650
11:00+12wsw8106496 0.4 10021401
14:00+11w8117088 0.8 10041475
17:00+10w8126125 0.8 10061528
20:00+10wsw2263100 0.0 100628
20 may, fri
fri2023:00+8wsw51085100 0.2 1006291
02:00+7wsw41183100 0.0 1007483
05:00+5wsw498830 0.0 1007254
08:00+8w57685 0.0 1008807
11:00+11wsw6856100 0.1 10081743
14:00+12wsw7105477 0.2 10081715
17:00+13w694410 0.6 10072049
20:00+10w336497 0.0 100750
21 may, sat
sat2123:00+7nw3367100 0.0 100736
02:00+6w1165100 0.0 100610
05:00+6ene0069100 0.0 100510
08:00+9e2360100 0.0 1003472
11:00+12ssw33475 0.0 10011760
14:00+13sw554432 0.0 9991760
17:00+5wnw7128798 3.2 1002694
20:00+8wnw47695 0.2 1002300